Location: Northam
(31.6525°S, 116.6655°E)
Time: 11:00:58
(UTC+08:00)

RS-15 - Visible Passes

Search period start: 05 August 2021 00:00
Search period end: 15 August 2021 00:00
Orbit: 1886 x 2159 km, 64.8° (Epoch: 04 August)

Date Brightness Start Highest point End Pass type
(mag) Time Alt. Az. Time Alt. Az. Time Alt. Az.
05 Aug 9.0 19:07:58 10° S 19:14:53 18° SE 19:16:25 17° SE visible
05 Aug 8.8 21:18:38 10° SSW 21:24:12 35° SSW 21:24:12 35° SSW visible
06 Aug 9.2 18:32:39 10° S 18:37:46 14° SSE 18:42:01 11° SE visible
06 Aug 8.5 20:42:45 10° SSW 20:49:48 40° S 20:49:48 40° S visible
06 Aug 9.7 22:55:48 10° SW 22:57:35 16° SW 22:57:35 16° SW visible
07 Aug 9.4 17:58:00 10° S 18:00:26 11° SSE 18:02:50 10° SE visible
07 Aug 8.4 20:06:56 10° SSW 20:15:28 39° SSE 20:15:28 39° SSE visible
07 Aug 9.3 22:19:14 10° SW 22:23:16 25° SW 22:23:16 25° SW visible
08 Aug 8.5 19:31:11 10° SSW 19:40:41 31° SE 19:41:12 31° SE visible
08 Aug 8.7 21:42:55 10° SSW 21:49:00 39° SW 21:49:00 39° SW visible
09 Aug 8.7 18:55:33 10° S 19:04:00 24° SE 19:07:01 22° ESE visible
09 Aug 8.2 21:06:46 10° SSW 21:14:49 56° SSW 21:14:49 56° SSW visible
10 Aug 9.0 18:20:00 10° S 18:27:08 18° SE 18:32:55 12° ESE visible
10 Aug 7.8 20:30:44 10° SSW 20:40:44 69° SSE 20:40:44 69° SSE visible
10 Aug 9.6 22:45:05 10° SW 22:48:33 18° WSW 22:48:33 18° WSW visible
11 Aug 7.8 19:54:50 10° SSW 20:05:37 56° ESE 20:06:45 54° ESE visible
11 Aug 9.1 22:08:02 10° SW 22:14:35 30° W 22:14:35 30° W visible
12 Aug 8.2 19:19:00 10° SSW 19:29:19 43° SE 19:32:55 34° E visible
12 Aug 8.5 21:31:24 10° SW 21:40:45 46° W 21:40:45 46° W visible
13 Aug 8.5 18:43:15 10° SSW 18:52:51 33° SE 18:59:15 19° E visible
13 Aug 8.1 20:55:03 10° SW 21:05:46 64° WNW 21:07:07 60° NW visible
14 Aug 8.8 18:07:36 10° S 18:16:13 25° SE 18:24:40 10° E visible
14 Aug 7.8 20:18:52 10° SSW 20:29:53 84° WNW 20:33:43 48° NNE visible
14 Aug 9.8 22:35:39 10° WSW 22:40:28 14° W 22:41:38 14° WNW visible
